Tabellarische Ansicht des 7.7.2012


Die einzelnen Werte des Tages

Uhrzeit Temperatur Luftdruck Luftfeuchte Wind Hi-Wind Taupunkt THW Index Wind Chill Heat Index Solar- strahlung Regen

00:00

16.2 C

1009.6 hpa

91 %

0.0 km/h aus 105

1.6 km/h aus SSW

14.7 C

16.4 C

16.2 C

16.4 C

0 W/m

0.00 mm

00:05

16.3 C

1009.6 hpa

91 %

0.0 km/h aus 103

0.0 km/h aus ---

14.8 C

16.6 C

16.3 C

16.6 C

0 W/m

0.00 mm

00:10

16.3 C

1009.6 hpa

91 %

0.0 km/h aus 100

0.0 km/h aus ---

14.9 C

16.6 C

16.3 C

16.6 C

0 W/m

0.00 mm

00:15

16.3 C

1009.5 hpa

91 %

0.0 km/h aus 101

0.0 km/h aus ---

14.9 C

16.6 C

16.3 C

16.6 C

0 W/m

0.00 mm

00:20

16.3 C

1009.5 hpa

91 %

0.0 km/h aus 105

0.0 km/h aus ---

14.8 C

16.6 C

16.3 C

16.6 C

0 W/m

0.00 mm

00:25

16.1 C

1009.5 hpa

90 %

0.0 km/h aus 108

1.6 km/h aus SSW

14.4 C

16.3 C

16.1 C

16.3 C

0 W/m

0.00 mm

00:30

15.8 C

1009.6 hpa

91 %

0.0 km/h aus 100

3.2 km/h aus SSW

14.4 C

16.1 C

15.8 C

16.1 C

0 W/m

0.00 mm

00:35

15.7 C

1009.6 hpa

91 %

1.6 km/h aus 103

4.8 km/h aus SSW

14.2 C

15.8 C

15.7 C

15.8 C

0 W/m

0.00 mm

00:40

15.6 C

1009.6 hpa

91 %

0.0 km/h aus 99

3.2 km/h aus SSW

14.1 C

15.7 C

15.6 C

15.7 C

0 W/m

0.00 mm

00:45

15.6 C

1009.6 hpa

91 %

0.0 km/h aus 101

0.0 km/h aus ---

14.1 C

15.8 C

15.6 C

15.8 C

0 W/m

0.00 mm

00:50

15.6 C

1009.6 hpa

91 %

0.0 km/h aus 107

0.0 km/h aus ---

14.1 C

15.7 C

15.6 C

15.7 C

0 W/m

0.00 mm

00:55

15.5 C

1009.6 hpa

91 %

0.0 km/h aus 105

0.0 km/h aus ---

14.0 C

15.7 C

15.5 C

15.7 C

0 W/m

0.00 mm

01:00

15.4 C

1009.5 hpa

92 %

0.0 km/h aus 107

1.6 km/h aus SSW

14.2 C

15.6 C

15.4 C

15.6 C

0 W/m

0.00 mm

01:05

15.3 C

1009.5 hpa

92 %

0.0 km/h aus 105

0.0 km/h aus ---

14.0 C

15.5 C

15.3 C

15.5 C

0 W/m

0.00 mm

01:10

15.0 C

1009.5 hpa

91 %

0.0 km/h aus 97

0.0 km/h aus ---

13.5 C

15.1 C

15.0 C

15.1 C

0 W/m

0.00 mm

01:15

15.0 C

1009.5 hpa

92 %

0.0 km/h aus 100

1.6 km/h aus SSW

13.7 C

15.2 C

15.0 C

15.2 C

0 W/m

0.00 mm

01:20

15.0 C

1009.5 hpa

92 %

0.0 km/h aus 101

1.6 km/h aus SSW

13.7 C

15.2 C

15.0 C

15.2 C

0 W/m

0.00 mm

01:25

15.0 C

1009.5 hpa

92 %

0.0 km/h aus 101

0.0 km/h aus ---

13.7 C

15.2 C

15.0 C

15.2 C

0 W/m

0.00 mm

01:30

14.9 C

1009.6 hpa

92 %

0.0 km/h aus 105

1.6 km/h aus SSW

13.7 C

15.1 C

14.9 C

15.1 C

0 W/m

0.00 mm

01:35

14.8 C

1009.6 hpa

92 %

0.0 km/h aus 107

0.0 km/h aus ---

13.5 C

14.9 C

14.8 C

14.9 C

0 W/m

0.00 mm

01:40

14.8 C

1009.6 hpa

92 %

0.0 km/h aus 104

0.0 km/h aus ---

13.5 C

15.0 C

14.8 C

15.0 C

0 W/m

0.00 mm

01:45

14.8 C

1009.5 hpa

93 %

0.0 km/h aus 103

0.0 km/h aus ---

13.7 C

14.9 C

14.8 C

14.9 C

0 W/m

0.00 mm

01:50

14.7 C

1009.5 hpa

93 %

0.0 km/h aus 98

0.0 km/h aus ---

13.6 C

14.9 C

14.7 C

14.9 C

0 W/m

0.00 mm

01:55

14.6 C

1009.5 hpa

93 %

0.0 km/h aus 108

0.0 km/h aus ---

13.5 C

14.7 C

14.6 C

14.7 C

0 W/m

0.00 mm

02:00

14.7 C

1009.6 hpa

93 %

0.0 km/h aus 103

3.2 km/h aus SSW

13.5 C

14.8 C

14.7 C

14.8 C

0 W/m

0.00 mm

02:05

14.6 C

1009.6 hpa

93 %

0.0 km/h aus 105

1.6 km/h aus SSW

13.5 C

14.7 C

14.6 C

14.7 C

0 W/m

0.00 mm

02:10

14.6 C

1009.6 hpa

93 %

0.0 km/h aus 102

0.0 km/h aus ---

13.5 C

14.7 C

14.6 C

14.7 C

0 W/m

0.00 mm

02:15

14.5 C

1009.5 hpa

93 %

0.0 km/h aus 110

3.2 km/h aus SSW

13.4 C

14.6 C

14.5 C

14.6 C

0 W/m

0.00 mm

02:20

14.6 C

1009.5 hpa

93 %

1.6 km/h aus 103

3.2 km/h aus SSW

13.4 C

14.7 C

14.6 C

14.7 C

0 W/m

0.00 mm

02:25

14.6 C

1009.5 hpa

93 %

0.0 km/h aus 105

3.2 km/h aus SSW

13.4 C

14.7 C

14.6 C

14.7 C

0 W/m

0.00 mm

02:30

14.5 C

1009.5 hpa

93 %

3.2 km/h aus 109

4.8 km/h aus SSW

13.4 C

14.6 C

14.5 C

14.6 C

0 W/m

0.00 mm

02:35

14.4 C

1009.5 hpa

93 %

1.6 km/h aus 104

3.2 km/h aus SSW

13.3 C

14.6 C

14.4 C

14.6 C

0 W/m

0.00 mm

02:40

14.5 C

1009.5 hpa

93 %

1.6 km/h aus 105

3.2 km/h aus SSW

13.4 C

14.6 C

14.5 C

14.6 C

0 W/m

0.00 mm

02:45

14.6 C

1009.6 hpa

93 %

1.6 km/h aus 105

4.8 km/h aus SSW

13.4 C

14.7 C

14.6 C

14.7 C

0 W/m

0.00 mm

02:50

14.4 C

1009.6 hpa

93 %

1.6 km/h aus 104

4.8 km/h aus SSW

13.3 C

14.6 C

14.4 C

14.6 C

0 W/m

0.00 mm

02:55

14.5 C

1009.6 hpa

93 %

0.0 km/h aus 107

3.2 km/h aus SSW

13.4 C

14.6 C

14.5 C

14.6 C

0 W/m

0.00 mm

03:00

14.6 C

1009.7 hpa

93 %

0.0 km/h aus 104

3.2 km/h aus SSW

13.5 C

14.7 C

14.6 C

14.7 C

0 W/m

0.00 mm

03:05

14.7 C

1009.7 hpa

93 %

0.0 km/h aus 106

1.6 km/h aus SSW

13.5 C

14.8 C

14.7 C

14.8 C

0 W/m

0.00 mm

03:10

14.7 C

1009.7 hpa

93 %

0.0 km/h aus 104

0.0 km/h aus ---

13.6 C

14.9 C

14.7 C

14.9 C

0 W/m

0.00 mm

03:15

14.6 C

1009.7 hpa

93 %

0.0 km/h aus 106

0.0 km/h aus ---

13.5 C

14.7 C

14.6 C

14.7 C

0 W/m

0.00 mm

03:20

14.6 C

1009.7 hpa

93 %

0.0 km/h aus 105

1.6 km/h aus SSW

13.4 C

14.7 C

14.6 C

14.7 C

0 W/m

0.00 mm

03:25

14.6 C

1009.7 hpa

93 %

0.0 km/h aus 106

0.0 km/h aus ---

13.4 C

14.7 C

14.6 C

14.7 C

0 W/m

0.00 mm

03:30

14.5 C

1009.6 hpa

93 %

0.0 km/h aus 104

0.0 km/h aus ---

13.4 C

14.6 C

14.5 C

14.6 C

0 W/m

0.00 mm

03:35

14.5 C

1009.6 hpa

93 %

0.0 km/h aus 99

0.0 km/h aus ---

13.4 C

14.6 C

14.5 C

14.6 C

0 W/m

0.00 mm

03:40

14.3 C

1009.6 hpa

93 %

0.0 km/h aus 105

0.0 km/h aus ---

13.2 C

14.4 C

14.3 C

14.4 C

0 W/m

0.00 mm

03:45

14.2 C

1009.6 hpa

93 %

0.0 km/h aus 103

0.0 km/h aus ---

13.1 C

14.3 C

14.2 C

14.3 C

0 W/m

0.00 mm

03:50

14.2 C

1009.6 hpa

93 %

0.0 km/h aus 88

0.0 km/h aus ---

13.1 C

14.3 C

14.2 C

14.3 C

0 W/m

0.00 mm

03:55

14.1 C

1009.6 hpa

93 %

0.0 km/h aus 100

0.0 km/h aus ---

12.9 C

14.2 C

14.1 C

14.2 C

0 W/m

0.00 mm

04:00

13.8 C

1009.6 hpa

93 %

0.0 km/h aus 106

1.6 km/h aus SSW

12.7 C

13.9 C

13.8 C

13.9 C

0 W/m

0.00 mm

04:05

13.9 C

1009.6 hpa

93 %

0.0 km/h aus 107

3.2 km/h aus SSW

12.8 C

14.1 C

13.9 C

14.1 C

0 W/m

0.00 mm

04:10

13.7 C

1009.6 hpa

93 %

0.0 km/h aus 107

1.6 km/h aus SSW

12.6 C

13.8 C

13.7 C

13.8 C

0 W/m

0.00 mm

04:15

13.7 C

1009.6 hpa

94 %

0.0 km/h aus 107

3.2 km/h aus SSW

12.8 C

13.8 C

13.7 C

13.8 C

0 W/m

0.00 mm

04:20

13.9 C

1009.6 hpa

94 %

0.0 km/h aus 113

3.2 km/h aus SSW

12.9 C

14.0 C

13.9 C

14.0 C

0 W/m

0.00 mm

04:25

13.9 C

1009.6 hpa

94 %

0.0 km/h aus 112

3.2 km/h aus SSW

13.0 C

14.1 C

13.9 C

14.1 C

0 W/m

0.00 mm

04:30

14.2 C

1009.6 hpa

94 %

0.0 km/h aus 111

3.2 km/h aus SSW

13.2 C

14.3 C

14.2 C

14.3 C

0 W/m

0.00 mm

04:35

14.3 C

1009.6 hpa

94 %

1.6 km/h aus 106

4.8 km/h aus SSW

13.3 C

14.4 C

14.3 C

14.4 C

0 W/m

0.00 mm

04:40

14.5 C

1009.6 hpa

94 %

3.2 km/h aus 107

6.4 km/h aus SSW

13.5 C

14.7 C

14.5 C

14.7 C

0 W/m

0.00 mm

04:45

14.6 C

1009.5 hpa

94 %

0.0 km/h aus 111

3.2 km/h aus SSW

13.7 C

14.8 C

14.6 C

14.8 C

0 W/m

0.00 mm

04:50

14.4 C

1009.5 hpa

94 %

0.0 km/h aus 111

0.0 km/h aus ---

13.5 C

14.6 C

14.4 C

14.6 C

0 W/m

0.00 mm

04:55

13.8 C

1009.5 hpa

93 %

0.0 km/h aus 113

0.0 km/h aus ---

12.7 C

13.9 C

13.8 C

13.9 C

0 W/m

0.00 mm

05:00

13.5 C

1009.6 hpa

93 %

0.0 km/h aus 107

1.6 km/h aus SSW

12.4 C

13.6 C

13.5 C

13.6 C

0 W/m

0.00 mm

05:05

13.4 C

1009.6 hpa

94 %

0.0 km/h aus 103

1.6 km/h aus SSW

12.5 C

13.6 C

13.4 C

13.6 C

0 W/m

0.00 mm

05:10

13.7 C

1009.6 hpa

94 %

0.0 km/h aus 105

1.6 km/h aus SSW

12.7 C

13.8 C

13.7 C

13.8 C

0 W/m

0.00 mm

05:15

13.7 C

1009.6 hpa

94 %

0.0 km/h aus 102

3.2 km/h aus SSW

12.8 C

13.8 C

13.7 C

13.8 C

0 W/m

0.00 mm

05:20

13.8 C

1009.6 hpa

94 %

1.6 km/h aus 107

4.8 km/h aus SSW

12.8 C

13.9 C

13.8 C

13.9 C

0 W/m

0.00 mm

05:25

13.9 C

1009.6 hpa

94 %

0.0 km/h aus 107

3.2 km/h aus SSW

12.9 C

14.0 C

13.9 C

14.0 C

0 W/m

0.00 mm

05:30

14.0 C

1009.6 hpa

94 %

0.0 km/h aus 98

4.8 km/h aus SSW

13.0 C

14.1 C

14.0 C

14.1 C

0 W/m

0.00 mm

05:35

13.9 C

1009.6 hpa

94 %

0.0 km/h aus 99

0.0 km/h aus ---

13.0 C

14.1 C

13.9 C

14.1 C

0 W/m

0.00 mm

05:40

14.0 C

1009.6 hpa

94 %

0.0 km/h aus 104

0.0 km/h aus ---

13.0 C

14.1 C

14.0 C

14.1 C

0 W/m

0.00 mm

05:45

14.1 C

1009.7 hpa

94 %

0.0 km/h aus 102

3.2 km/h aus SSW

13.1 C

14.2 C

14.1 C

14.2 C

0 W/m

0.00 mm

05:50

14.1 C

1009.7 hpa

94 %

1.6 km/h aus 108

3.2 km/h aus SSW

13.1 C

14.2 C

14.1 C

14.2 C

0 W/m

0.00 mm

05:55

14.2 C

1009.7 hpa

94 %

1.6 km/h aus 101

4.8 km/h aus SSW

13.2 C

14.3 C

14.2 C

14.3 C

0 W/m

0.00 mm

06:00

14.3 C

1009.7 hpa

94 %

0.0 km/h aus 106

1.6 km/h aus SSW

13.3 C

14.4 C

14.3 C

14.4 C

0 W/m

0.00 mm

06:05

14.4 C

1009.7 hpa

94 %

0.0 km/h aus 110

3.2 km/h aus SSW

13.5 C

14.6 C

14.4 C

14.6 C

0 W/m

0.00 mm

06:10

14.6 C

1009.7 hpa

95 %

0.0 km/h aus 107

0.0 km/h aus ---

13.8 C

14.7 C

14.6 C

14.7 C

0 W/m

0.00 mm

06:15

14.6 C

1010.0 hpa

94 %

0.0 km/h aus 102

0.0 km/h aus ---

13.6 C

14.7 C

14.6 C

14.7 C

0 W/m

0.00 mm

06:20

14.6 C

1010.0 hpa

94 %

0.0 km/h aus 108

0.0 km/h aus ---

13.6 C

14.7 C

14.6 C

14.7 C

0 W/m

0.00 mm

06:25

14.6 C

1010.0 hpa

94 %

0.0 km/h aus 94

0.0 km/h aus ---

13.6 C

14.7 C

14.6 C

14.7 C

0 W/m

0.00 mm

06:30

14.7 C

1009.7 hpa

95 %

0.0 km/h aus 101

0.0 km/h aus ---

13.9 C

14.8 C

14.7 C

14.8 C

0 W/m

0.00 mm

06:35

14.7 C

1009.7 hpa

94 %

0.0 km/h aus 84

0.0 km/h aus ---

13.8 C

14.9 C

14.7 C

14.9 C

0 W/m

0.00 mm

06:40

14.9 C

1009.7 hpa

95 %

0.0 km/h aus 107

1.6 km/h aus SSW

14.1 C

15.1 C

14.9 C

15.1 C

0 W/m

0.00 mm

06:45

15.0 C

1009.6 hpa

95 %

0.0 km/h aus 107

0.0 km/h aus ---

14.2 C

15.2 C

15.0 C

15.2 C

0 W/m

0.00 mm

06:50

15.3 C

1009.6 hpa

95 %

0.0 km/h aus 105

0.0 km/h aus ---

14.5 C

15.5 C

15.3 C

15.5 C

0 W/m

0.00 mm

06:55

15.6 C

1009.6 hpa

95 %

1.6 km/h aus 105

3.2 km/h aus SSW

14.8 C

15.8 C

15.6 C

15.8 C

0 W/m

0.00 mm

07:00

15.7 C

1009.6 hpa

95 %

0.0 km/h aus 100

3.2 km/h aus SSW

14.9 C

15.9 C

15.7 C

15.9 C

0 W/m

0.00 mm

07:05

15.7 C

1009.6 hpa

95 %

0.0 km/h aus 103

1.6 km/h aus SSW

14.9 C

15.9 C

15.7 C

15.9 C

0 W/m

0.00 mm

07:10

15.8 C

1009.6 hpa

95 %

1.6 km/h aus 104

3.2 km/h aus SSW

15.0 C

16.0 C

15.8 C

16.0 C

0 W/m

0.00 mm

07:15

15.9 C

1009.6 hpa

95 %

0.0 km/h aus 103

3.2 km/h aus SSW

15.1 C

16.2 C

15.9 C

16.2 C

0 W/m

0.00 mm

07:20

16.1 C

1009.6 hpa

95 %

0.0 km/h aus 107

3.2 km/h aus SSW

15.3 C

16.4 C

16.1 C

16.4 C

0 W/m

0.00 mm

07:25

16.4 C

1009.6 hpa

95 %

0.0 km/h aus 109

3.2 km/h aus SSW

15.6 C

16.8 C

16.4 C

16.8 C

0 W/m

0.00 mm

07:30

16.6 C

1009.4 hpa

95 %

0.0 km/h aus 103

3.2 km/h aus SSW

15.8 C

16.9 C

16.6 C

16.9 C

0 W/m

0.00 mm

07:35

16.8 C

1009.4 hpa

95 %

0.0 km/h aus 106

1.6 km/h aus SSW

16.0 C

17.2 C

16.8 C

17.2 C

0 W/m

0.00 mm

07:40

17.0 C

1009.4 hpa

94 %

0.0 km/h aus 102

1.6 km/h aus SSW

16.0 C

17.4 C

17.0 C

17.4 C

0 W/m

0.00 mm

07:45

17.2 C

1009.2 hpa

94 %

0.0 km/h aus 109

1.6 km/h aus SSW

16.2 C

17.7 C

17.2 C

17.7 C

0 W/m

0.00 mm

07:50

17.4 C

1009.2 hpa

93 %

0.0 km/h aus 109

3.2 km/h aus SSW

16.3 C

17.9 C

17.4 C

17.9 C

0 W/m

0.00 mm

07:55

17.8 C

1009.2 hpa

93 %

1.6 km/h aus 108

4.8 km/h aus SSW

16.6 C

18.3 C

17.8 C

18.3 C

0 W/m

0.00 mm

08:00

18.0 C

1009.5 hpa

92 %

0.0 km/h aus 105

3.2 km/h aus SSW

16.7 C

18.6 C

18.0 C

18.6 C

0 W/m

0.00 mm

08:05

18.3 C

1009.5 hpa

91 %

1.6 km/h aus 111

4.8 km/h aus SSW

16.8 C

18.9 C

18.3 C

18.9 C

0 W/m

0.00 mm

08:10

18.8 C

1009.5 hpa

89 %

1.6 km/h aus 110

6.4 km/h aus SSW

17.0 C

19.5 C

18.8 C

19.5 C

0 W/m

0.00 mm

08:15

19.2 C

1009.5 hpa

86 %

4.8 km/h aus 112

9.7 km/h aus SSW

16.8 C

19.8 C

19.2 C

19.8 C

0 W/m

0.00 mm

08:20

19.3 C

1009.5 hpa

85 %

6.4 km/h aus 114

9.7 km/h aus SSW

16.7 C

20.0 C

19.3 C

20.0 C

0 W/m

0.00 mm

08:25

19.3 C

1009.5 hpa

84 %

3.2 km/h aus 107

6.4 km/h aus SSW

16.5 C

19.9 C

19.3 C

19.9 C

0 W/m

0.00 mm

08:30

19.7 C

1009.6 hpa

83 %

4.8 km/h aus 112

8.0 km/h aus SSW

16.7 C

20.4 C

19.7 C

20.4 C

0 W/m

0.00 mm

08:35

20.0 C

1009.6 hpa

82 %

1.6 km/h aus 113

6.4 km/h aus SSW

16.8 C

20.8 C

20.0 C

20.8 C

0 W/m

0.00 mm

08:40

20.3 C

1009.6 hpa

81 %

1.6 km/h aus 108

6.4 km/h aus SSW

17.0 C

21.2 C

20.3 C

21.2 C

0 W/m

0.00 mm

08:45

20.3 C

1009.6 hpa

79 %

4.8 km/h aus 113

8.0 km/h aus SSW

16.5 C

21.0 C

20.3 C

21.0 C

0 W/m

0.00 mm

08:50

20.5 C

1009.6 hpa

79 %

4.8 km/h aus 113

6.4 km/h aus SSW

16.7 C

21.3 C

20.5 C

21.3 C

0 W/m

0.00 mm

08:55

20.7 C

1009.6 hpa

76 %

3.2 km/h aus 110

8.0 km/h aus SSW

16.3 C

21.2 C

20.7 C

21.2 C

0 W/m

0.00 mm

09:00

20.5 C

1009.7 hpa

74 %

4.8 km/h aus 111

9.7 km/h aus SSW

15.7 C

21.0 C

20.5 C

21.0 C

0 W/m

0.00 mm

09:05

21.1 C

1009.7 hpa

74 %

4.8 km/h aus 116

14.5 km/h aus SSW

16.2 C

21.3 C

21.1 C

21.3 C

0 W/m

0.00 mm

09:10

21.3 C

1009.7 hpa

73 %

6.4 km/h aus 111

12.9 km/h aus S

16.2 C

21.6 C

21.3 C

21.6 C

0 W/m

0.00 mm

09:15

21.2 C

1010.0 hpa

70 %

4.8 km/h aus 114

11.3 km/h aus SSW

15.5 C

21.2 C

21.2 C

21.2 C

0 W/m

0.00 mm

09:20

20.8 C

1010.0 hpa

71 %

4.8 km/h aus 116

9.7 km/h aus SW

15.3 C

21.0 C

20.8 C

21.0 C

0 W/m

0.00 mm

09:25

21.1 C

1010.0 hpa

72 %

6.4 km/h aus 111

11.3 km/h aus S

15.8 C

21.2 C

21.1 C

21.2 C

0 W/m

0.00 mm

09:30

21.3 C

1009.8 hpa

72 %

6.4 km/h aus 111

11.3 km/h aus S

16.0 C

21.5 C

21.3 C

21.5 C

0 W/m

0.00 mm

09:35

21.7 C

1009.8 hpa

71 %

6.4 km/h aus 114

11.3 km/h aus S

16.2 C

21.9 C

21.7 C

21.9 C

0 W/m

0.00 mm

09:40

21.8 C

1009.8 hpa

70 %

4.8 km/h aus 113

11.3 km/h aus S

16.1 C

22.1 C

21.8 C

22.1 C

0 W/m

0.00 mm

09:45

21.6 C

1009.9 hpa

69 %

6.4 km/h aus 114

14.5 km/h aus SSW

15.6 C

21.7 C

21.6 C

21.7 C

0 W/m

0.00 mm

09:50

21.6 C

1009.9 hpa

69 %

4.8 km/h aus 113

12.9 km/h aus SW

15.7 C

21.8 C

21.6 C

21.8 C

0 W/m

0.00 mm

09:55

21.7 C

1009.9 hpa

68 %

3.2 km/h aus 112

11.3 km/h aus SW

15.5 C

21.8 C

21.7 C

21.8 C

0 W/m

0.00 mm

10:00

22.1 C

1009.7 hpa

69 %

3.2 km/h aus 112

9.7 km/h aus SW

16.1 C

22.3 C

22.1 C

22.3 C

0 W/m

0.00 mm

10:05

22.2 C

1009.7 hpa

64 %

6.4 km/h aus 112

12.9 km/h aus SW

15.1 C

22.3 C

22.2 C

22.3 C

0 W/m

0.00 mm

10:10

22.2 C

1009.7 hpa

66 %

4.8 km/h aus 113

9.7 km/h aus SSW

15.5 C

22.3 C

22.2 C

22.3 C

0 W/m

0.00 mm

10:15

21.9 C

1009.6 hpa

66 %

3.2 km/h aus 113

6.4 km/h aus SSW

15.3 C

22.1 C

21.9 C

22.1 C

0 W/m

0.00 mm

10:20

22.2 C

1009.6 hpa

67 %

1.6 km/h aus 112

8.0 km/h aus W

15.8 C

22.5 C

22.2 C

22.5 C

0 W/m

0.00 mm

10:25

22.1 C

1009.6 hpa

64 %

1.6 km/h aus 114

9.7 km/h aus SW

15.0 C

22.2 C

22.1 C

22.2 C

0 W/m

0.00 mm

10:30

22.1 C

1009.7 hpa

65 %

1.6 km/h aus 110

6.4 km/h aus SW

15.2 C

22.2 C

22.1 C

22.2 C

0 W/m

0.00 mm

10:35

22.6 C

1009.7 hpa

67 %

1.6 km/h aus 112

6.4 km/h aus SW

16.1 C

22.9 C

22.6 C

22.9 C

0 W/m

0.00 mm

10:40

22.8 C

1009.7 hpa

63 %

1.6 km/h aus 108

6.4 km/h aus SW

15.4 C

23.2 C

22.8 C

23.2 C

0 W/m

0.00 mm

10:45

22.9 C

1009.6 hpa

64 %

1.6 km/h aus 110

6.4 km/h aus SW

15.7 C

23.3 C

22.9 C

23.3 C

0 W/m

0.00 mm

10:50

23.1 C

1009.6 hpa

64 %

1.6 km/h aus 117

4.8 km/h aus SW

15.9 C

23.6 C

23.1 C

23.6 C

0 W/m

0.00 mm

10:55

23.0 C

1009.6 hpa

63 %

1.6 km/h aus 116

4.8 km/h aus SW

15.6 C

23.4 C

23.0 C

23.4 C

0 W/m

0.00 mm

11:00

22.9 C

1009.6 hpa

64 %

0.0 km/h aus 115

3.2 km/h aus SW

15.8 C

23.4 C

22.9 C

23.4 C

0 W/m

0.00 mm

11:05

23.7 C

1009.6 hpa

63 %

1.6 km/h aus 116

4.8 km/h aus SW

16.2 C

24.3 C

23.7 C

24.3 C

0 W/m

0.00 mm

11:10

23.8 C

1009.6 hpa

61 %

0.0 km/h aus 116

3.2 km/h aus SW

15.8 C

24.3 C

23.8 C

24.3 C

0 W/m

0.00 mm

11:15

23.6 C

1009.6 hpa

60 %

0.0 km/h aus 115

4.8 km/h aus N

15.3 C

24.0 C

23.6 C

24.0 C

0 W/m

0.00 mm

11:20

23.3 C

1009.6 hpa

64 %

0.0 km/h aus 114

4.8 km/h aus N

16.1 C

23.9 C

23.3 C

23.9 C

0 W/m

0.00 mm

11:25

23.3 C

1009.6 hpa

62 %

0.0 km/h aus 116

3.2 km/h aus N

15.6 C

23.8 C

23.3 C

23.8 C

0 W/m

0.00 mm

11:30

23.8 C

1009.5 hpa

61 %

1.6 km/h aus 112

6.4 km/h aus N

15.9 C

24.4 C

23.8 C

24.4 C

0 W/m

0.00 mm

11:35

24.1 C

1009.5 hpa

57 %

3.2 km/h aus 117

8.0 km/h aus N

15.0 C

24.4 C

24.1 C

24.4 C

0 W/m

0.00 mm

11:40

24.1 C

1009.5 hpa

56 %

1.6 km/h aus 116

6.4 km/h aus N

14.8 C

24.4 C

24.1 C

24.4 C

0 W/m

0.00 mm

11:45

24.3 C

1009.5 hpa

58 %

1.6 km/h aus 116

6.4 km/h aus N

15.5 C

24.7 C

24.3 C

24.7 C

0 W/m

0.00 mm

11:50

24.1 C

1009.5 hpa

57 %

3.2 km/h aus 113

6.4 km/h aus N

15.1 C

24.4 C

24.1 C

24.4 C

0 W/m

0.00 mm

11:55

23.4 C

1009.5 hpa

58 %

1.6 km/h aus 115

6.4 km/h aus N

14.7 C

23.7 C

23.4 C

23.7 C

0 W/m

0.00 mm

12:00

22.9 C

1009.5 hpa

61 %

0.0 km/h aus 109

4.8 km/h aus N

15.0 C

23.3 C

22.9 C

23.3 C

0 W/m

0.00 mm

12:05

23.0 C

1009.5 hpa

63 %

1.6 km/h aus 114

4.8 km/h aus N

15.6 C

23.4 C

23.0 C

23.4 C

0 W/m

0.00 mm

12:10

23.0 C

1009.5 hpa

60 %

1.6 km/h aus 112

6.4 km/h aus N

14.8 C

23.3 C

23.0 C

23.3 C

0 W/m

0.00 mm

12:15

23.7 C

1009.1 hpa

62 %

0.0 km/h aus 115

1.6 km/h aus NE

16.0 C

24.2 C

23.7 C

24.2 C

0 W/m

0.00 mm

12:20

24.5 C

1009.1 hpa

60 %

1.6 km/h aus 116

4.8 km/h aus NE

16.2 C

24.9 C

24.5 C

24.9 C

0 W/m

0.00 mm

12:25

24.6 C

1009.1 hpa

57 %

4.8 km/h aus 113

8.0 km/h aus E

15.5 C

24.8 C

24.6 C

24.8 C

0 W/m

0.00 mm

12:30

24.9 C

1009.1 hpa

56 %

4.8 km/h aus 116

8.0 km/h aus ENE

15.6 C

25.2 C

24.9 C

25.2 C

0 W/m

0.00 mm

12:35

25.2 C

1009.1 hpa

57 %

6.4 km/h aus 112

16.1 km/h aus ESE

16.0 C

25.4 C

25.2 C

25.4 C

0 W/m

0.00 mm

12:40

24.4 C

1009.1 hpa

59 %

3.2 km/h aus 112

8.0 km/h aus ESE

15.9 C

24.8 C

24.4 C

24.8 C

0 W/m

0.00 mm

12:45

24.0 C

1009.2 hpa

55 %

4.8 km/h aus 116

9.7 km/h aus ESE

14.4 C

24.3 C

24.0 C

24.3 C

0 W/m

0.00 mm

12:50

23.6 C

1009.2 hpa

57 %

1.6 km/h aus 114

6.4 km/h aus ESE

14.5 C

23.8 C

23.6 C

23.8 C

0 W/m

0.00 mm

12:55

23.2 C

1009.2 hpa

62 %

0.0 km/h aus 118

1.6 km/h aus ESE

15.5 C

23.6 C

23.2 C

23.6 C

0 W/m

0.00 mm

13:00

22.7 C

1009.0 hpa

63 %

1.6 km/h aus 117

3.2 km/h aus ESE

15.3 C

23.0 C

22.7 C

23.0 C

0 W/m

0.00 mm

13:05

22.5 C

1009.0 hpa

67 %

0.0 km/h aus 117

1.6 km/h aus ESE

16.1 C

22.9 C

22.5 C

22.9 C

0 W/m

0.00 mm

13:10

22.1 C

1009.0 hpa

70 %

1.6 km/h aus 113

6.4 km/h aus ESE

16.3 C

22.4 C

22.1 C

22.4 C

0 W/m

0.00 mm

13:15

21.7 C

1009.4 hpa

77 %

6.4 km/h aus 112

14.5 km/h aus SE

17.5 C

22.2 C

21.7 C

22.2 C

0 W/m

0.00 mm

13:20

20.6 C

1009.4 hpa

77 %

14.5 km/h aus 115

20.9 km/h aus SSE

16.4 C

20.4 C

19.8 C

21.2 C

0 W/m

0.25 mm

13:25

19.8 C

1009.4 hpa

81 %

8.0 km/h aus 116

16.1 km/h aus SE

16.4 C

20.5 C

19.8 C

20.5 C

0 W/m

0.25 mm

13:30

19.2 C

1009.2 hpa

85 %

8.0 km/h aus 112

14.5 km/h aus S

16.6 C

19.9 C

19.2 C

19.9 C

0 W/m

0.51 mm

13:35

18.9 C

1009.2 hpa

85 %

6.4 km/h aus 111

11.3 km/h aus S

16.3 C

19.4 C

18.9 C

19.4 C

0 W/m

0.25 mm

13:40

19.1 C

1009.2 hpa

87 %

1.6 km/h aus 113

6.4 km/h aus S

16.8 C

19.7 C

19.1 C

19.7 C

0 W/m

0.00 mm

13:45

18.9 C

1009.3 hpa

87 %

9.7 km/h aus 109

17.7 km/h aus ESE

16.7 C

19.6 C

18.9 C

19.6 C

0 W/m

0.00 mm

13:50

18.7 C

1009.3 hpa

88 %

8.0 km/h aus 107

14.5 km/h aus ESE

16.6 C

19.3 C

18.7 C

19.3 C

0 W/m

0.00 mm

13:55

18.6 C

1009.3 hpa

88 %

6.4 km/h aus 114

9.7 km/h aus ESE

16.5 C

19.1 C

18.6 C

19.1 C

0 W/m

0.00 mm

14:00

18.5 C

1009.6 hpa

89 %

4.8 km/h aus 110

9.7 km/h aus ESE

16.7 C

19.1 C

18.5 C

19.1 C

0 W/m

0.00 mm

14:05

18.6 C

1009.6 hpa

89 %

6.4 km/h aus 107

9.7 km/h aus SE

16.7 C

19.2 C

18.6 C

19.2 C

0 W/m

0.00 mm

14:10

18.8 C

1009.6 hpa

90 %

4.8 km/h aus 100

8.0 km/h aus SE

17.1 C

19.4 C

18.8 C

19.4 C

0 W/m

0.00 mm

14:15

18.6 C

1009.9 hpa

89 %

1.6 km/h aus 99

6.4 km/h aus SE

16.7 C

19.2 C

18.6 C

19.2 C

0 W/m

0.00 mm

14:20

18.4 C

1009.9 hpa

89 %

4.8 km/h aus 109

8.0 km/h aus SE

16.6 C

19.0 C

18.4 C

19.0 C

0 W/m

0.00 mm

14:25

18.3 C

1009.9 hpa

89 %

6.4 km/h aus 108

11.3 km/h aus SE

16.4 C

18.8 C

18.3 C

18.8 C

0 W/m

0.00 mm

14:30

18.2 C

1010.1 hpa

88 %

4.8 km/h aus 110

12.9 km/h aus SSW

16.2 C

18.7 C

18.2 C

18.7 C

0 W/m

0.25 mm

14:35

18.3 C

1010.1 hpa

89 %

3.2 km/h aus 111

4.8 km/h aus SSW

16.5 C

18.9 C

18.3 C

18.9 C

0 W/m

0.25 mm

14:40

18.4 C

1010.1 hpa

89 %

4.8 km/h aus 104

12.9 km/h aus ESE

16.6 C

19.0 C

18.4 C

19.0 C

0 W/m

0.25 mm

14:45

18.6 C

1010.1 hpa

89 %

3.2 km/h aus 101

9.7 km/h aus E

16.7 C

19.2 C

18.6 C

19.2 C

0 W/m

0.00 mm

14:50

19.2 C

1010.1 hpa

89 %

3.2 km/h aus 104

6.4 km/h aus E

17.3 C

19.9 C

19.2 C

19.9 C

0 W/m

0.00 mm

14:55

19.7 C

1010.1 hpa

89 %

3.2 km/h aus 101

6.4 km/h aus E

17.8 C

20.5 C

19.7 C

20.5 C

0 W/m

0.00 mm

15:00

19.8 C

1010.0 hpa

87 %

4.8 km/h aus 113

16.1 km/h aus SSW

17.6 C

20.7 C

19.8 C

20.7 C

0 W/m

0.00 mm

15:05

20.2 C

1010.0 hpa

88 %

8.0 km/h aus 110

14.5 km/h aus SSW

18.1 C

21.1 C

20.2 C

21.1 C

0 W/m

0.00 mm

15:10

20.4 C

1010.0 hpa

87 %

8.0 km/h aus 110

14.5 km/h aus SSE

18.2 C

21.4 C

20.4 C

21.4 C

0 W/m

0.00 mm

15:15

20.5 C

1009.7 hpa

87 %

9.7 km/h aus 112

14.5 km/h aus SSE

18.3 C

21.6 C

20.5 C

21.6 C

0 W/m

0.00 mm

15:20

20.6 C

1009.7 hpa

85 %

9.7 km/h aus 113

16.1 km/h aus SE

18.0 C

21.6 C

20.6 C

21.6 C

0 W/m

0.00 mm

15:25

20.8 C

1009.7 hpa

85 %

4.8 km/h aus 117

11.3 km/h aus SE

18.2 C

21.8 C

20.8 C

21.8 C

0 W/m

0.00 mm

15:30

20.8 C

1009.1 hpa

81 %

6.4 km/h aus 112

11.3 km/h aus ESE

17.5 C

21.6 C

20.8 C

21.6 C

0 W/m

0.00 mm

15:35

21.0 C

1009.1 hpa

81 %

4.8 km/h aus 108

11.3 km/h aus ESE

17.6 C

21.7 C

21.0 C

21.7 C

0 W/m

0.00 mm

15:40

21.3 C

1009.1 hpa

79 %

6.4 km/h aus 112

14.5 km/h aus E

17.5 C

21.9 C

21.3 C

21.9 C

0 W/m

0.00 mm

15:45

21.4 C

1009.0 hpa

80 %

6.4 km/h aus 107

14.5 km/h aus ESE

17.8 C

22.1 C

21.4 C

22.1 C

0 W/m

0.00 mm

15:50

21.7 C

1009.0 hpa

79 %

6.4 km/h aus 114

17.7 km/h aus SSE

17.9 C

22.3 C

21.7 C

22.3 C

0 W/m

0.00 mm

15:55

21.8 C

1009.0 hpa

78 %

6.4 km/h aus 112

12.9 km/h aus SSE

17.8 C

22.4 C

21.8 C

22.4 C

0 W/m

0.00 mm

16:00

21.9 C

1008.8 hpa

76 %

6.4 km/h aus 116

14.5 km/h aus E

17.5 C

22.5 C

21.9 C

22.5 C

0 W/m

0.00 mm

16:05

22.2 C

1008.8 hpa

76 %

8.0 km/h aus 116

16.1 km/h aus E

17.7 C

22.8 C

22.2 C

22.8 C

0 W/m

0.00 mm

16:10

22.3 C

1008.8 hpa

77 %

6.4 km/h aus 116

17.7 km/h aus NE

18.1 C

23.1 C

22.3 C

23.1 C

0 W/m

0.00 mm

16:15

22.4 C

1008.8 hpa

74 %

9.7 km/h aus 110

17.7 km/h aus ESE

17.6 C

23.1 C

22.4 C

23.1 C

0 W/m

0.00 mm

16:20

22.7 C

1008.8 hpa

75 %

8.0 km/h aus 115

17.7 km/h aus ESE

18.0 C

23.4 C

22.7 C

23.4 C

0 W/m

0.00 mm

16:25

22.7 C

1008.8 hpa

75 %

8.0 km/h aus 115

16.1 km/h aus E

18.0 C

23.4 C

22.7 C

23.4 C

0 W/m

0.00 mm

16:30

22.6 C

1008.5 hpa

71 %

11.3 km/h aus 114

17.7 km/h aus E

17.1 C

23.2 C

22.6 C

23.2 C

0 W/m

0.00 mm

16:35

22.9 C

1008.5 hpa

71 %

8.0 km/h aus 116

17.7 km/h aus ESE

17.4 C

23.6 C

22.9 C

23.6 C

0 W/m

0.00 mm

16:40

23.0 C

1008.5 hpa

70 %

9.7 km/h aus 116

19.3 km/h aus ESE

17.2 C

23.7 C

23.0 C

23.7 C

0 W/m

0.00 mm

16:45

23.3 C

1008.8 hpa

68 %

9.7 km/h aus 116

19.3 km/h aus ESE

17.0 C

24.1 C

23.3 C

24.1 C

0 W/m

0.00 mm

16:50

23.4 C

1008.8 hpa

67 %

8.0 km/h aus 114

16.1 km/h aus ENE

17.0 C

24.2 C

23.4 C

24.2 C

0 W/m

0.00 mm

16:55

23.3 C

1008.8 hpa

67 %

8.0 km/h aus 117

17.7 km/h aus SE

16.8 C

24.0 C

23.3 C

24.0 C

0 W/m

0.00 mm

17:00

22.7 C

1009.0 hpa

67 %

8.0 km/h aus 114

16.1 km/h aus ESE

16.2 C

23.1 C

22.7 C

23.1 C

0 W/m

0.00 mm

17:05

22.2 C

1009.0 hpa

69 %

8.0 km/h aus 118

16.1 km/h aus SE

16.2 C

22.5 C

22.2 C

22.5 C

0 W/m

0.00 mm

17:10

21.8 C

1009.0 hpa

69 %

8.0 km/h aus 114

14.5 km/h aus SE

15.8 C

22.0 C

21.8 C

22.0 C

0 W/m

0.00 mm

17:15

21.5 C

1009.0 hpa

70 %

9.7 km/h aus 112

16.1 km/h aus SSE

15.8 C

21.7 C

21.5 C

21.7 C

0 W/m

0.00 mm

17:20

21.2 C

1009.0 hpa

70 %

9.7 km/h aus 112

16.1 km/h aus SSE

15.5 C

21.2 C

21.2 C

21.2 C

0 W/m

0.00 mm

17:25

20.8 C

1009.0 hpa

77 %

6.4 km/h aus 115

11.3 km/h aus SSE

16.6 C

21.3 C

20.8 C

21.3 C

0 W/m

0.25 mm

17:30

20.2 C

1009.0 hpa

80 %

3.2 km/h aus 115

8.0 km/h aus SSE

16.6 C

20.9 C

20.2 C

20.9 C

0 W/m

0.00 mm

17:35

19.9 C

1009.0 hpa

83 %

1.6 km/h aus 112

6.4 km/h aus SSE

16.9 C

20.7 C

19.9 C

20.7 C

0 W/m

0.00 mm

17:40

19.9 C

1009.0 hpa

85 %

1.6 km/h aus 111

3.2 km/h aus SSE

17.3 C

20.7 C

19.9 C

20.7 C

0 W/m

0.00 mm

17:45

20.1 C

1008.8 hpa

84 %

0.0 km/h aus 112

3.2 km/h aus SSE

17.3 C

20.9 C

20.1 C

20.9 C

0 W/m

0.00 mm

17:50

20.6 C

1008.8 hpa

81 %

0.0 km/h aus 115

3.2 km/h aus SSE

17.2 C

21.4 C

20.6 C

21.4 C

0 W/m

0.00 mm

17:55

20.9 C

1008.8 hpa

81 %

3.2 km/h aus 114

6.4 km/h aus SSE

17.6 C

21.7 C

20.9 C

21.7 C

0 W/m

0.00 mm

18:00

21.6 C

1008.5 hpa

78 %

6.4 km/h aus 112

9.7 km/h aus SSE

17.6 C

22.2 C

21.6 C

22.2 C

0 W/m

0.00 mm

18:05

21.5 C

1008.5 hpa

73 %

4.8 km/h aus 115

9.7 km/h aus SE

16.5 C

21.8 C

21.5 C

21.8 C

0 W/m

0.00 mm

18:10

21.8 C

1008.5 hpa

75 %

6.4 km/h aus 115

16.1 km/h aus ESE

17.1 C

22.2 C

21.8 C

22.2 C

0 W/m

0.00 mm

18:15

22.1 C

1008.4 hpa

72 %

4.8 km/h aus 115

9.7 km/h aus ESE

16.8 C

22.4 C

22.1 C

22.4 C

0 W/m

0.00 mm

18:20

22.2 C

1008.4 hpa

70 %

6.4 km/h aus 111

11.3 km/h aus SSE

16.5 C

22.6 C

22.2 C

22.6 C

0 W/m

0.00 mm

18:25

22.4 C

1008.4 hpa

71 %

8.0 km/h aus 112

12.9 km/h aus S

16.9 C

22.9 C

22.4 C

22.9 C

0 W/m

0.00 mm

18:30

22.4 C

1008.5 hpa

71 %

8.0 km/h aus 114

11.3 km/h aus S

16.9 C

22.9 C

22.4 C

22.9 C

0 W/m

0.00 mm

18:35

22.4 C

1008.5 hpa

70 %

8.0 km/h aus 113

12.9 km/h aus SSE

16.7 C

22.9 C

22.4 C

22.9 C

0 W/m

0.00 mm

18:40

22.5 C

1008.5 hpa

70 %

6.4 km/h aus 113

12.9 km/h aus SSE

16.8 C

23.0 C

22.5 C

23.0 C

0 W/m

0.00 mm

18:45

22.6 C

1008.5 hpa

70 %

6.4 km/h aus 117

11.3 km/h aus SSE

16.9 C

23.2 C

22.6 C

23.2 C

0 W/m

0.00 mm

18:50

22.3 C

1008.5 hpa

71 %

6.4 km/h aus 117

14.5 km/h aus SE

16.8 C

22.8 C

22.3 C

22.8 C

0 W/m

0.00 mm

18:55

22.3 C

1008.5 hpa

69 %

6.4 km/h aus 113

12.9 km/h aus SE

16.4 C

22.7 C

22.3 C

22.7 C

0 W/m

0.00 mm

19:00

22.0 C

1008.5 hpa

70 %

3.2 km/h aus 114

6.4 km/h aus SE

16.3 C

22.3 C

22.0 C

22.3 C

0 W/m

0.00 mm

19:05

21.9 C

1008.5 hpa

70 %

1.6 km/h aus 116

4.8 km/h aus SE

16.2 C

22.2 C

21.9 C

22.2 C

0 W/m

0.00 mm

19:10

22.1 C

1008.5 hpa

69 %

1.6 km/h aus 115

4.8 km/h aus SE

16.1 C

22.3 C

22.1 C

22.3 C

0 W/m

0.00 mm

19:15

21.9 C

1008.5 hpa

70 %

1.6 km/h aus 116

4.8 km/h aus SE

16.2 C

22.2 C

21.9 C

22.2 C

0 W/m

0.00 mm

19:20

21.9 C

1008.5 hpa

70 %

1.6 km/h aus 111

6.4 km/h aus SE

16.2 C

22.2 C

21.9 C

22.2 C

0 W/m

0.00 mm

19:25

21.8 C

1008.5 hpa

70 %

0.0 km/h aus 117

6.4 km/h aus SE

16.1 C

22.1 C

21.8 C

22.1 C

0 W/m

0.00 mm

19:30

21.8 C

1008.4 hpa

71 %

1.6 km/h aus 116

6.4 km/h aus SE

16.3 C

22.2 C

21.8 C

22.2 C

0 W/m

0.00 mm

19:35

21.8 C

1008.4 hpa

70 %

1.6 km/h aus 109

6.4 km/h aus SE

16.1 C

22.1 C

21.8 C

22.1 C

0 W/m

0.00 mm

19:40

21.8 C

1008.4 hpa

71 %

3.2 km/h aus 114

11.3 km/h aus SE

16.3 C

22.2 C

21.8 C

22.2 C

0 W/m

0.00 mm

19:45

21.8 C

1008.5 hpa

70 %

3.2 km/h aus 104

6.4 km/h aus SE

16.1 C

22.1 C

21.8 C

22.1 C

0 W/m

0.00 mm

19:50

21.6 C

1008.5 hpa

71 %

4.8 km/h aus 113

9.7 km/h aus SE

16.1 C

21.8 C

21.6 C

21.8 C

0 W/m

0.00 mm

19:55

21.6 C

1008.5 hpa

71 %

4.8 km/h aus 109

8.0 km/h aus SE

16.1 C

21.8 C

21.6 C

21.8 C

0 W/m

0.00 mm

20:00

21.4 C

1008.5 hpa

71 %

3.2 km/h aus 111

6.4 km/h aus ESE

16.0 C

21.7 C

21.4 C

21.7 C

0 W/m

0.00 mm

20:05

21.3 C

1008.5 hpa

72 %

1.6 km/h aus 112

6.4 km/h aus ESE

16.0 C

21.5 C

21.3 C

21.5 C

0 W/m

0.00 mm

20:10

21.2 C

1008.5 hpa

72 %

1.6 km/h aus 114

4.8 km/h aus ESE

16.0 C

21.4 C

21.2 C

21.4 C

0 W/m

0.00 mm

20:15

21.1 C

1008.4 hpa

73 %

1.6 km/h aus 112

4.8 km/h aus ESE

16.0 C

21.3 C

21.1 C

21.3 C

0 W/m

0.00 mm

20:20

21.0 C

1008.4 hpa

73 %

3.2 km/h aus 109

6.4 km/h aus ESE

16.0 C

21.3 C

21.0 C

21.3 C

0 W/m

0.00 mm

20:25

20.9 C

1008.4 hpa

72 %

4.8 km/h aus 109

9.7 km/h aus ESE

15.7 C

21.1 C

20.9 C

21.1 C

0 W/m

0.00 mm

20:30

20.8 C

1008.4 hpa

72 %

4.8 km/h aus 111

11.3 km/h aus ESE

15.5 C

21.1 C

20.8 C

21.1 C

0 W/m

0.00 mm

20:35

20.6 C

1008.4 hpa

72 %

3.2 km/h aus 115

8.0 km/h aus ESE

15.4 C

20.9 C

20.6 C

20.9 C

0 W/m

0.00 mm

20:40

20.4 C

1008.4 hpa

73 %

3.2 km/h aus 109

8.0 km/h aus ESE

15.4 C

20.9 C

20.4 C

20.9 C

0 W/m

0.00 mm

20:45

20.2 C

1008.5 hpa

73 %

4.8 km/h aus 114

9.7 km/h aus ESE

15.2 C

20.7 C

20.2 C

20.7 C

0 W/m

0.00 mm

20:50

20.1 C

1008.5 hpa

74 %

3.2 km/h aus 115

6.4 km/h aus ESE

15.3 C

20.6 C

20.1 C

20.6 C

0 W/m

0.00 mm

20:55

19.9 C

1008.5 hpa

75 %

3.2 km/h aus 105

8.0 km/h aus ESE

15.3 C

20.4 C

19.9 C

20.4 C

0 W/m

0.00 mm

21:00

19.7 C

1008.4 hpa

76 %

3.2 km/h aus 111

8.0 km/h aus ESE

15.4 C

20.2 C

19.7 C

20.2 C

0 W/m

0.00 mm

21:05

19.6 C

1008.4 hpa

76 %

4.8 km/h aus 105

9.7 km/h aus ESE

15.3 C

20.1 C

19.6 C

20.1 C

0 W/m

0.00 mm

21:10

19.4 C

1008.4 hpa

77 %

4.8 km/h aus 114

9.7 km/h aus ESE

15.3 C

19.9 C

19.4 C

19.9 C

0 W/m

0.00 mm

21:15

19.2 C

1008.5 hpa

78 %

3.2 km/h aus 108

11.3 km/h aus ESE

15.3 C

19.7 C

19.2 C

19.7 C

0 W/m

0.00 mm

21:20

19.1 C

1008.5 hpa

79 %

3.2 km/h aus 110

8.0 km/h aus ESE

15.3 C

19.6 C

19.1 C

19.6 C

0 W/m

0.00 mm

21:25

18.9 C

1008.5 hpa

80 %

4.8 km/h aus 110

8.0 km/h aus ESE

15.4 C

19.4 C

18.9 C

19.4 C

0 W/m

0.00 mm

21:30

18.8 C

1008.5 hpa

81 %

4.8 km/h aus 114

6.4 km/h aus ESE

15.4 C

19.3 C

18.8 C

19.3 C

0 W/m

0.00 mm

21:35

18.6 C

1008.5 hpa

82 %

4.8 km/h aus 109

8.0 km/h aus ESE

15.4 C

19.0 C

18.6 C

19.0 C

0 W/m

0.00 mm

21:40

18.4 C

1008.5 hpa

83 %

6.4 km/h aus 100

11.3 km/h aus ESE

15.5 C

18.9 C

18.4 C

18.9 C

0 W/m

0.00 mm

21:45

18.4 C

1008.5 hpa

83 %

4.8 km/h aus 110

8.0 km/h aus ESE

15.4 C

18.8 C

18.4 C

18.8 C

0 W/m

0.00 mm

21:50

18.4 C

1008.5 hpa

84 %

3.2 km/h aus 108

6.4 km/h aus ESE

15.7 C

18.9 C

18.4 C

18.9 C

0 W/m

0.00 mm

21:55

18.4 C

1008.5 hpa

84 %

1.6 km/h aus 109

4.8 km/h aus ESE

15.6 C

18.8 C

18.4 C

18.8 C

0 W/m

0.00 mm

22:00

18.3 C

1008.5 hpa

84 %

1.6 km/h aus 107

4.8 km/h aus ESE

15.6 C

18.8 C

18.3 C

18.8 C

0 W/m

0.00 mm

22:05

18.2 C

1008.5 hpa

84 %

1.6 km/h aus 111

3.2 km/h aus ESE

15.5 C

18.6 C

18.2 C

18.6 C

0 W/m

0.00 mm

22:10

18.1 C

1008.5 hpa

84 %

1.6 km/h aus 110

4.8 km/h aus ESE

15.3 C

18.4 C

18.1 C

18.4 C

0 W/m

0.00 mm

22:15

17.8 C

1008.5 hpa

85 %

1.6 km/h aus 114

3.2 km/h aus ESE

15.3 C

18.2 C

17.8 C

18.2 C

0 W/m

0.00 mm

22:20

17.7 C

1008.5 hpa

85 %

1.6 km/h aus 110

8.0 km/h aus ESE

15.1 C

18.0 C

17.7 C

18.0 C

0 W/m

0.00 mm

22:25

17.7 C

1008.5 hpa

85 %

3.2 km/h aus 115

4.8 km/h aus ESE

15.1 C

18.0 C

17.7 C

18.0 C

0 W/m

0.00 mm

22:30

17.7 C

1008.5 hpa

85 %

1.6 km/h aus 108

6.4 km/h aus ESE

15.1 C

18.0 C

17.7 C

18.0 C

0 W/m

0.00 mm

22:35

17.6 C

1008.5 hpa

86 %

1.6 km/h aus 112

4.8 km/h aus ESE

15.2 C

17.9 C

17.6 C

17.9 C

0 W/m

0.00 mm

22:40

17.5 C

1008.5 hpa

86 %

1.6 km/h aus 112

4.8 km/h aus ESE

15.1 C

17.8 C

17.5 C

17.8 C

0 W/m

0.00 mm

22:45

17.5 C

1008.6 hpa

86 %

1.6 km/h aus 114

6.4 km/h aus ESE

15.1 C

17.8 C

17.5 C

17.8 C

0 W/m

0.00 mm

22:50

17.4 C

1008.6 hpa

86 %

1.6 km/h aus 110

4.8 km/h aus ESE

15.1 C

17.8 C

17.4 C

17.8 C

0 W/m

0.00 mm

22:55

17.6 C

1008.6 hpa

87 %

0.0 km/h aus 109

3.2 km/h aus ESE

15.4 C

17.9 C

17.6 C

17.9 C

0 W/m

0.00 mm

23:00

17.5 C

1008.5 hpa

87 %

1.6 km/h aus 109

4.8 km/h aus ESE

15.3 C

17.8 C

17.5 C

17.8 C

0 W/m

0.00 mm

23:05

17.6 C

1008.5 hpa

87 %

0.0 km/h aus 115

4.8 km/h aus ESE

15.4 C

18.0 C

17.6 C

18.0 C

0 W/m

0.00 mm

23:10

17.6 C

1008.5 hpa

86 %

1.6 km/h aus 111

6.4 km/h aus ESE

15.2 C

17.9 C

17.6 C

17.9 C

0 W/m

0.00 mm

23:15

17.6 C

1008.5 hpa

87 %

0.0 km/h aus 114

3.2 km/h aus ESE

15.4 C

17.9 C

17.6 C

17.9 C

0 W/m

0.00 mm

23:20

17.5 C

1008.5 hpa

87 %

1.6 km/h aus 105

6.4 km/h aus ESE

15.3 C

17.8 C

17.5 C

17.8 C

0 W/m

0.00 mm

23:25

17.5 C

1008.5 hpa

86 %

3.2 km/h aus 108

6.4 km/h aus ESE

15.1 C

17.8 C

17.5 C

17.8 C

0 W/m

0.00 mm

23:30

17.3 C

1008.4 hpa

86 %

3.2 km/h aus 108

6.4 km/h aus ESE

15.0 C

17.7 C

17.3 C

17.7 C

0 W/m

0.00 mm

23:35

17.1 C

1008.4 hpa

87 %

3.2 km/h aus 106

6.4 km/h aus ESE

14.9 C

17.4 C

17.1 C

17.4 C

0 W/m

0.00 mm

23:40

16.9 C

1008.4 hpa

87 %

4.8 km/h aus 113

8.0 km/h aus ESE

14.8 C

17.2 C

16.9 C

17.2 C

0 W/m

0.00 mm

23:45

16.8 C

1008.2 hpa

88 %

4.8 km/h aus 108

8.0 km/h aus ESE

14.8 C

17.1 C

16.8 C

17.1 C

0 W/m

0.00 mm

23:50

16.7 C

1008.2 hpa

88 %

4.8 km/h aus 114

8.0 km/h aus ESE

14.7 C

16.9 C

16.7 C

16.9 C

0 W/m

0.00 mm

23:55

16.6 C

1008.2 hpa

88 %

3.2 km/h aus 113

6.4 km/h aus ESE

14.6 C

16.8 C

16.6 C

16.8 C

0 W/m

0.00 mm